Flag for U.S.A. Weather past 2 weeks in Chattanooga, Tennessee, U.S.A.

Now
51 °F

Light rain. Mostly cloudy.


Feels Like: 48 °F
Forecast: 46 / 52 °F
Wind: 9 mph from Northeast

Location: Lovell Field

Current Time: Dec 28, 2014 at 11:00:19 PM

Latest Report: Dec 28, 2014 at 9:53 PM


Visibility: 10 mi

Pressure: 30.09 "Hg

Humidity: 86%

Dew point: 47 °F

Location of ChattanoogaLocation

Historic Weather in Chattanooga — Graph

°F

Chattanooga temperature yesterday

Maximum temperature yesterday: 56 °F (at 2:53 PM)
Minimum temperature yesterday: 38 °F (at 3:03 AM)
Average temperature yesterday: 48 °F

Past Weeks' High & Low Weather Summary

 TemperatureHumidityPressure
High59 °F (Dec 28, 2:53 PM)100% (Dec 16, 4:53 AM)30.40 "Hg (Dec 16, 4:53 AM)
Low27 °F (Dec 15, 7:53 AM)46% (Dec 19, 1:53 PM)29.59 "Hg (Dec 24, 1:58 PM)
Average45 °F79%30.11 "Hg
* Reported Dec 13 8:53 PM — Dec 28 8:53 PM, Chattanooga, Weather by CustomWeather, © 2014

Note: Actual official high and low records may vary slightly from our data, if they occured in-between our weather recording intervals... More about our weather records

Advertising

Chattanooga weather history for previous 24 hours

 ConditionsComfort  
Time TempWeatherWind HumidityBarometerVisibility
8:53 PM
Dec 28
52 °FMostly cloudy.7 mph89%30.11 "Hg10 mi
7:53 PM53 °FMostly cloudy.8 mph89%30.11 "Hg10 mi
6:53 PM54 °FMostly cloudy.7 mph93%30.09 "Hg10 mi
5:53 PM56 °FMostly cloudy.8 mph87%30.09 "Hg10 mi
5:00 PM57 °FMostly cloudy.8 mph87%30.07 "Hg10 mi
3:53 PM58 °FCloudy.3 mph90%30.03 "Hg10 mi
2:53 PM59 °FMostly cloudy.3 mph87%30.03 "Hg10 mi
2:02 PM58 °FMostly cloudy.No wind87%30.05 "Hg3 mi
1:53 PM58 °FMostly cloudy.No wind87%30.04 "Hg2 mi
1:03 PM57 °FFog.No wind93%30.06 "Hg2 mi
12:53 PM57 °FFog.No wind93%30.06 "Hg1 mi
11:53 AM55 °FLight rain. Fog.5 mph96%30.08 "Hg1 mi
10:59 AM54 °FLight rain. Fog.3 mph97%30.10 "Hg1 mi
9:53 AM54 °FLight rain. Fog.No wind97%30.09 "Hg2 mi
8:53 AM53 °FLight rain. Fog.No wind96%30.07 "Hg1 mi
7:53 AM52 °FLight rain. Fog.No wind97%30.06 "Hg1 mi
6:57 AM52 °FHeavy rain. Fog.No wind97%30.05 "Hg2 mi
5:53 AM52 °FDrizzle. Fog.No wind97%30.04 "Hg5 mi
4:53 AM52 °FLow clouds.3 mph97%30.05 "Hg10 mi
3:53 AM52 °FLight rain. Low clouds.No wind97%30.07 "Hg9 mi
3:01 AM52 °FLight rain. Mostly cloudy.5 mph97%30.07 "Hg10 mi
1:53 AM52 °FLight rain. Mostly cloudy.6 mph93%30.10 "Hg7 mi
12:53 AM52 °FLight rain. Overcast.6 mph93%30.10 "Hg9 mi
12:03 AM52 °FLight rain. Overcast.6 mph89%30.15 "Hg8 mi
11:53 PM
Dec 27
52 °FLight rain. Mostly cloudy.5 mph86%30.15 "Hg7 mi
Weather by CustomWeather, © 2014

See weather overviewHow to use our weather pages